Location: Lobstick
(53.6000°N, 115.1667°W)
Time: 15:16:18
(UTC+00:00)

Gurwin Techsat 1B - Pass Details

Date: 01 December 2023
Orbit: 810 x 813 km, 98.9° (Epoch: 28 February)

Event Time Altitude Azimuth Distance (km) Brightness Sun altitude
Rises 11:30:00 0° 15° (NNE) 3,350 12.1 -35.0°
Reaches altitude 10° 11:32:21 10° 14° (NNE) 2,415 11.3 -34.7°
Enters shadow 11:33:25 16° 13° (NNE) 2,003 10.8 -34.5°
